Location: Az?znagar
(16.8373°N, 80.5091°E)
Time: 14:01:41
(UTC+00:00)

X-37B - Visible Passes

Search period start: 23 September 2023 00:00
Search period end: 03 October 2023 00:00
Orbit: 277 x 277 km, 45.0° (Epoch: 01 November)

Date Brightness Start Highest point End Pass type
(mag) Time Alt. Az. Time Alt. Az. Time Alt. Az.
29 Sep 2.6 23:59:36 10° N 00:01:29 19° NE 00:03:22 10° E visible
30 Sep 0.4 23:59:46 10° NW 00:02:10 59° NE 00:04:34 10° SE visible
02 Oct 0.6 00:00:32 10° WNW 00:02:48 35° SW 00:05:05 10° SSE visible
02 Oct 2.2 12:55:38 10° SSE 12:56:36 12° SE 12:57:25 10° ESE visible
